Location: Ariel
(45.9570°N, 122.5700°W)
Time: 15:32:24
(UTC-08:00)

Transit 4A - Pass Details

Date: 30 October 2020
Orbit: 862 x 982 km, 66.8° (Epoch: 03 December)

Event Time Altitude Azimuth Distance (km) Brightness Sun altitude
Rises 19:02:01 0° 288° (WNW) 3,657 12.2 -11.6°
Reaches altitude 10° 19:06:14 10° 315° (NW) 2,729 10.9 -12.3°
Maximum altitude 19:09:12 13° 343° (NNW) 2,497 10.3 -12.8°
Drops below altitude 10° 19:12:11 10° 11° (N) 2,744 10.2 -13.3°
Enters shadow 19:15:30 - 33° (NNE) 3,446 10.5 -13.9°
